Weather History for K2G4 - August, 2013

Change the Weather History Date:

Sunday, August 4, 2013

  Actual Average (KMGW) Record (KMGW)
Temperature  
Mean Temperature 58 °F 73 °F  
Max Temperature 66 °F 83 °F 97 °F (1955)
Min Temperature 51 °F 63 °F 47 °F (1965)
Degree Days  
Heating Degree Days 6 0  
Month to date heating degree days 0  
Since 1 June heating degree days 34  
Since 1 July heating degree days 3  
Cooling Degree Days 0 8  
Month to date cooling degree days 32  
Year to date cooling degree days 516  
Since 1 June cooling degree days 449  
Growing Degree Days 8 (Base 50)    
Moisture  
Dew Point 54 °F    
Average Humidity 81    
Maximum Humidity 100    
Minimum Humidity 59    
Precipitation  
Precipitation 0.00 in 0.11 in 2.53 in (1948)
Month to date precipitation 0.48  
Year to date precipitation 26.40  
Sea Level Pressure  
Sea Level Pressure 30.11 in    
Wind  
Wind Speed 3 mph (NW)    
Max Wind Speed 8 mph    
Max Gust Speed 17 mph    
Visibility 7 miles    
Events Fog    
T = Trace of Precipitation, MM = Missing Value Source: NWS Daily Summary

Daily Weather History Graph

Daily Weather History Graph

Search for Another Location

Airport or City:

Trip Planner

Search our weather history database for the weather conditions in past years. The results will help you decide how hot, cold, wet, or windy it might be!

Date:

Astronomy

Aug. 04, 2013 Rise Set
Actual Time 6:19 AM EDT 8:26 PM EDT
Civil Twilight 5:49 AM EDT 8:56 PM EDT
Nautical Twilight 5:13 AM EDT 9:32 PM EDT
Astronomical Twilight 4:33 AM EDT 10:12 PM EDT
Moon 4:19 AM EDT (8/4) 6:48 PM EDT (8/4)
Length of Visible Light 15h 06m
Length of Day
14h 06m
Waning Crescent, 5% of the Moon is Illuminated
Aug 4
Waning Crescent
Aug 6
New
Aug 14
First Quarter
Aug 20
Full
Aug 28
Last Quarter

Hourly Weather History & Observations

Time (EDT) Temp. Dew Point Humidity Pressure Visibility Wind Dir Wind Speed Gust Speed Precip Events Conditions
12:15 AM 59.0 °F - N/A% 30.07 in 2.0 mi WNW 4.6 mph - N/A   Overcast
12:35 AM 59.0 °F - N/A% 30.07 in 2.5 mi Calm Calm - N/A   Mostly Cloudy
12:55 AM 59.0 °F - N/A% 30.07 in 1.2 mi West 3.5 mph - N/A   Mostly Cloudy
1:15 AM 59.0 °F - N/A% 30.07 in 0.5 mi NW 3.5 mph - N/A Fog Fog
1:35 AM 59.0 °F - N/A% 30.07 in 1.0 mi NW 3.5 mph - N/A   Overcast
1:55 AM 57.2 °F - N/A% 30.07 in 0.2 mi NW 3.5 mph - N/A Fog Fog
2:20 AM 55.4 °F - N/A% 30.06 in 0.8 mi Calm Calm - N/A   Overcast
2:40 AM 55.4 °F - N/A% 30.06 in 0.2 mi Calm Calm - N/A Fog Fog
3:00 AM 55.4 °F - N/A% 30.06 in 0.2 mi Calm Calm - N/A Fog Fog
3:20 AM 55.4 °F - N/A% 30.06 in 0.2 mi Calm Calm - N/A Fog Fog
3:40 AM 55.4 °F - N/A% 30.06 in 0.5 mi West 3.5 mph - N/A Fog Fog
4:00 AM 55.4 °F - N/A% 30.06 in 5.0 mi West 3.5 mph - N/A   Haze
4:20 AM 55.4 °F - N/A% 30.06 in 7.0 mi WNW 3.5 mph - N/A   Clear
4:40 AM 53.6 °F - N/A% 30.06 in 0.2 mi Calm Calm - N/A Fog Fog
5:00 AM 53.6 °F - N/A% 30.06 in 2.0 mi West 3.5 mph - N/A   Mostly Cloudy
5:20 AM 53.6 °F - N/A% 30.06 in 3.0 mi Calm Calm - N/A   Scattered Clouds
5:40 AM 53.6 °F - N/A% 30.07 in 0.8 mi Calm Calm - N/A   Mostly Cloudy
6:00 AM 53.6 °F - N/A% 30.07 in 5.0 mi WNW 3.5 mph - N/A   Haze
6:20 AM 51.8 °F - N/A% 30.08 in 0.2 mi Calm Calm - N/A Fog Fog
6:40 AM 51.8 °F - N/A% 30.08 in 0.2 mi NNW 3.5 mph - N/A Fog Fog
7:00 AM 53.6 °F - N/A% 30.08 in 0.2 mi Calm Calm - N/A Fog Fog
7:20 AM 53.6 °F - N/A% 30.08 in 0.2 mi Calm Calm - N/A Fog Fog
7:40 AM 53.6 °F - N/A% 30.08 in 0.8 mi Calm Calm - N/A   Mostly Cloudy
8:00 AM 53.6 °F - N/A% 30.08 in 1.5 mi Calm Calm - N/A   Mist
8:20 AM 53.6 °F - N/A% 30.09 in 2.0 mi Calm Calm - N/A   Mostly Cloudy
8:40 AM 55.4 °F - N/A% 30.10 in 7.0 mi Calm Calm - N/A   Scattered Clouds
9:00 AM 57.2 °F - N/A% 30.10 in 10.0 mi West 3.5 mph - N/A   Clear
9:20 AM 59.0 °F 59.0 °F 100% 30.11 in 10.0 mi NW 8.1 mph - N/A   Mostly Cloudy
9:40 AM 55.4 °F 55.4 °F 100% 30.11 in 7.0 mi NW 5.8 mph - N/A   Overcast
10:00 AM 55.4 °F 55.4 °F 100% 30.11 in 7.0 mi NNW 3.5 mph - N/A   Overcast
10:20 AM 55.4 °F - N/A% 30.12 in 5.0 mi NNW 3.5 mph - N/A   Haze
10:40 AM 55.4 °F 55.4 °F 100% 30.11 in 10.0 mi WNW 4.6 mph - N/A   Overcast
11:00 AM 55.4 °F 55.4 °F 100% 30.12 in 10.0 mi NW 3.5 mph - N/A   Overcast
11:20 AM 59.0 °F 59.0 °F 100% 30.12 in 10.0 mi WNW 4.6 mph - N/A   Overcast
11:40 AM 60.8 °F 60.8 °F 100% 30.12 in 10.0 mi NW 6.9 mph - N/A   Mostly Cloudy
12:00 PM 62.6 °F 59.0 °F 88% 30.12 in 10.0 mi WNW 5.8 mph - N/A   Mostly Cloudy
12:20 PM 60.8 °F 59.0 °F 94% 30.13 in 10.0 mi NW 6.9 mph - N/A   Overcast
12:40 PM 62.6 °F 55.4 °F 77% 30.13 in 10.0 mi NW 8.1 mph - N/A   Mostly Cloudy
1:00 PM 62.6 °F 55.4 °F 77% 30.13 in 10.0 mi NW 8.1 mph 17.3 mph N/A   Mostly Cloudy
1:20 PM 62.6 °F 53.6 °F 72% 30.13 in 10.0 mi WNW 6.9 mph 17.3 mph N/A   Scattered Clouds
1:40 PM 62.6 °F 53.6 °F 72% 30.13 in 10.0 mi NW 5.8 mph 17.3 mph N/A   Scattered Clouds
2:00 PM 62.6 °F 51.8 °F 68% 30.13 in 10.0 mi NW 5.8 mph - N/A   Scattered Clouds
2:20 PM 64.4 °F 51.8 °F 64% 30.12 in 10.0 mi NW 8.1 mph 16.1 mph N/A   Scattered Clouds
2:40 PM 64.4 °F 51.8 °F 64% 30.12 in 10.0 mi WNW 6.9 mph 16.1 mph N/A   Scattered Clouds
3:00 PM 66.2 °F 53.6 °F 64% 30.11 in 10.0 mi WNW 6.9 mph - N/A   Mostly Cloudy
3:20 PM 62.6 °F 51.8 °F 68% 30.12 in 10.0 mi NNW 8.1 mph - N/A   Mostly Cloudy
3:40 PM 62.6 °F 53.6 °F 72% 30.12 in 10.0 mi NW 6.9 mph - N/A   Scattered Clouds
4:00 PM 66.2 °F 53.6 °F 64% 30.12 in 10.0 mi NNW 5.8 mph - N/A   Mostly Cloudy
4:20 PM 64.4 °F 50.0 °F 59% 30.12 in 10.0 mi NW 5.8 mph - N/A   Scattered Clouds
4:40 PM 62.6 °F 51.8 °F 68% 30.12 in 10.0 mi NNW 4.6 mph - N/A   Mostly Cloudy
5:00 PM 62.6 °F 51.8 °F 68% 30.12 in 10.0 mi NNW 4.6 mph - N/A   Overcast
5:20 PM 64.4 °F 53.6 °F 68% 30.12 in 10.0 mi WNW 6.9 mph - N/A   Scattered Clouds
5:40 PM 64.4 °F 51.8 °F 64% 30.12 in 10.0 mi NW 6.9 mph - N/A   Scattered Clouds
6:00 PM 64.4 °F 53.6 °F 68% 30.12 in 10.0 mi WNW 5.8 mph - N/A   Mostly Cloudy
6:20 PM 64.4 °F 53.6 °F 68% 30.12 in 10.0 mi WNW 5.8 mph - N/A   Mostly Cloudy
6:40 PM 60.8 °F 51.8 °F 72% 30.13 in 10.0 mi WNW 4.6 mph - N/A   Scattered Clouds
7:00 PM 62.6 °F 51.8 °F 68% 30.12 in 10.0 mi NW 4.6 mph - N/A   Mostly Cloudy
7:20 PM 60.8 °F 53.6 °F 77% 30.13 in 10.0 mi NW 5.8 mph - N/A   Scattered Clouds
7:40 PM 60.8 °F 53.6 °F 77% 30.12 in 10.0 mi Calm Calm - N/A   Clear
8:00 PM 59.0 °F 53.6 °F 82% 30.13 in 10.0 mi Calm Calm - N/A   Clear
8:20 PM 59.0 °F 53.6 °F 82% 30.13 in 10.0 mi WNW 3.5 mph - N/A   Clear
8:40 PM 59.0 °F 53.6 °F 82% 30.14 in 10.0 mi West 3.5 mph - N/A   Clear
9:00 PM 57.2 °F 53.6 °F 88% 30.14 in 10.0 mi WNW 4.6 mph - N/A   Clear
9:20 PM 57.2 °F 53.6 °F 88% 30.14 in 10.0 mi NW 5.8 mph - N/A   Scattered Clouds
9:40 PM 57.2 °F 53.6 °F 88% 30.14 in 10.0 mi NW 4.6 mph - N/A   Scattered Clouds
10:00 PM 55.4 °F 53.6 °F 94% 30.14 in 10.0 mi NW 4.6 mph - N/A   Clear
10:20 PM 55.4 °F 53.6 °F 94% 30.15 in 10.0 mi NW 4.6 mph - N/A   Clear
10:40 PM 55.4 °F 53.6 °F 94% 30.15 in 10.0 mi NW 4.6 mph - N/A   Scattered Clouds
11:00 PM 55.4 °F 53.6 °F 94% 30.15 in 10.0 mi NW 4.6 mph - N/A   Clear
11:20 PM 53.6 °F 53.6 °F 100% 30.15 in 10.0 mi NW 3.5 mph - N/A   Clear
11:40 PM 53.6 °F 51.8 °F 94% 30.15 in 10.0 mi Calm Calm - N/A   Clear